[[{"header":{"parameterUnit":"m.s-1","parameterCategory":1,"la1":30.2991,"la2":30.254,"lo1":-89.0895,"lo2":-89.0444,"dy":0.0017,"dx":0.0017,"nx":28,"ny":28,"refTime":"2024-08-30T09:00:00:Z","depth":0,"parameterNumber":2,"parameterNumberName":"U-component_of_WINDS"},"data":[0,0,0,0,0,0,0,0,0,0,0,0,0,0,0,0,0,0,0,0,0,0,0,0,0,0,0,0,0,0,0,0,0,0,0,0,0,0,0,0,0,0,0,0,0,0,0,0,0,0,0,0,0,0,0,0,0,0,-3.1105,-3.1106,0,-3.1247,-3.1249,-3.125,-3.125,-3.1248,-3.1247,-3.1245,-3.1391,-3.1396,-3.1402,0,0,0,0,0,0,0,0,0,0,0,0,0,-3.0834,-3.0839,-3.1105,-3.1107,-3.1108,-3.1247,-3.1249,-3.1251,-3.1251,-3.1248,-3.1246,-3.1244,-3.1389,-3.1395,-3.1402,0,0,0,0,0,0,0,0,0,0,0,0,0,-3.0961,-3.0841,-3.1104,-3.1125,-3.1128,-3.1246,-3.1249,-3.1251,-3.1251,-3.1248,-3.1245,-3.1243,-3.1387,-3.1395,-3.1403,-3.151,0,0,-3.1429,-3.1432,0,0,0,0,0,0,0,0,-3.0954,-3.0971,-3.112,-3.1124,-3.1128,-3.1228,-3.1207,-3.1338,-3.1252,-3.1204,-3.1245,-3.1242,-3.1339,-3.1351,-3.1384,-3.1517,-3.1523,-3.1429,-3.1434,-3.1438,-3.144,0,0,0,0,0,0,0,-3.0945,-3.0965,-3.1161,-3.1122,-3.1127,-3.1127,-3.1142,-3.1231,-3.1285,-3.1208,-3.1209,-3.1225,-3.134,-3.1375,-3.1387,-3.1525,-3.1429,-3.1437,-3.1442,-3.1445,-3.1753,-3.1756,0,0,0,0,0,0,-3.0932,-3.0958,-3.1156,-3.1165,-3.1032,-3.1134,-3.1151,-3.1199,-3.1284,-3.1295,-3.1228,-3.1225,-3.1362,-3.1377,-3.1392,-3.1522,-3.1438,-3.1446,-3.1451,-3.1749,-3.1753,-3.1757,0,0,0,0,0,0,-3.0926,-3.095,-3.1151,-3.1062,-3.1087,-3.1142,-3.1195,-3.1203,-3.1238,-3.1299,-3.1309,-3.1254,-3.1361,-3.138,-3.148,-3.1527,-3.145,-3.1457,-3.1746,-3.1751,-3.1755,-3.1782,0,0,0,0,0,0,-3.0919,-3.0948,-3.0989,-3.1063,-3.1092,-3.1237,-3.1198,-3.1208,-3.1252,-3.125,-3.1326,-3.1336,-3.136,-3.1468,-3.1489,-3.1537,-3.1464,-3.1742,-3.1748,-3.1753,-3.1778,-3.1787,-3.1796,0,0,0,0,0,-3.0909,-3.0991,-3.0991,-3.1015,-3.1144,-3.1239,-3.1256,-3.1282,-3.1256,-3.1298,-3.1337,-3.1333,-3.1519,-3.1478,-3.1502,-3.1553,-3.1739,-3.1746,-3.1753,-3.1773,-3.1786,-3.1796,0,0,0,0,0,0,-3.0921,-3.1001,-3.1002,-3.111,-3.1168,-3.1239,-3.1292,-3.1294,-3.1361,-3.1356,-3.1386,-3.1403,-3.1502,-3.1538,-3.1491,-3.1661,-3.1626,-3.1638,-3.1633,-3.1645,-3.1654,-3.1642,-3.1471,0,0,0,0,0,-3.0937,-3.1007,-3.1073,-3.1163,-3.1192,-3.1237,-3.1279,-3.1295,-3.1356,-3.138,-3.1426,-3.1486,-3.1557,-3.1604,-3.1673,-3.1784,-3.18,-3.1831,-3.184,-3.1847,-3.1856,-3.1916,-3.1931,-3.178,-3.178,-3.178,0,0,-3.0969,-3.1022,-3.1064,-3.1167,-3.1213,-3.1284,-3.1257,-3.1335,-3.1388,-3.1392,-3.1488,-3.1525,-3.1593,-3.1699,-3.1747,-3.1731,-3.1902,-3.1856,-3.1862,-3.1867,-3.1925,-3.1939,-3.1952,-3.1785,-3.1784,-3.1783,0,0,-3.1064,-3.1112,-3.1191,-3.1238,-3.1309,-3.1338,-3.1357,-3.1429,-3.1453,-3.1551,-3.1555,-3.1619,-3.1742,-3.179,-3.1831,-3.1945,-3.1944,-3.1967,-3.2014,-3.2072,-3.2084,-3.2095,-3.2134,-3.2147,-3.1977,-3.1977,-3.1977,0,-3.1095,-3.1203,-3.1231,-3.1308,-3.1353,-3.136,-3.144,-3.1485,-3.1574,-3.1605,-3.1586,-3.174,-3.1787,-3.1903,-3.1931,-3.1964,-3.1986,-3.1957,-3.208,-3.2091,-3.2101,-3.2139,-3.2154,-3.1979,-3.1979,-3.1978,-3.1978,0,-3.1237,-3.1312,-3.1368,-3.1454,-3.1505,-3.1583,-3.1623,-3.1671,-3.1683,-3.1715,-3.1814,-3.1871,-3.1951,-3.198,-3.1992,-3.2098,-3.2086,-3.2074,-3.2038,-3.2117,-3.2153,-3.2168,-3.1982,-3.1981,-3.1981,-3.198,0,0,-3.1342,-3.1443,-3.1463,-3.1501,-3.158,-3.1639,-3.1718,-3.1796,-3.1837,-3.1899,-3.1965,-3.207,-3.2058,-3.2104,-3.2122,-3.2174,-3.2259,-3.2155,-3.2157,-3.217,-3.2377,-3.2384,-3.24,-3.226,-3.2262,-3.2265,-3.2371,0,-3.1444,-3.1583,-3.1611,-3.1731,-3.18,-3.1809,-3.1878,-3.1933,-3.1966,-3.2029,-3.2065,-3.2138,-3.2119,-3.2146,-3.2198,-3.2237,-3.23,-3.2231,-3.232,-3.2323,-3.23,-3.2419,-3.2427,-3.2524,-3.2385,-3.2387,-3.2389,0,-3.1581,-3.1646,-3.1773,-3.1842,-3.1872,-3.1933,-3.2007,-3.2068,-3.2132,-3.2152,-3.2204,-3.2216,-3.2298,-3.2261,-3.2374,-3.2326,-3.2365,-3.239,-3.2395,-3.2402,-3.2359,-3.2427,-3.2556,-3.2569,-3.2412,-3.241,-3.2408,0,-3.1642,-3.1761,-3.1853,-3.1886,-3.197,-3.2012,-3.2049,-3.211,-3.2155,-3.2221,-3.225,-3.2324,-3.2364,-3.2422,-3.2454,-3.2424,-3.2564,-3.253,-3.2582,-3.2581,-3.2608,-3.2606,-3.2742,-3.2638,-3.2637,-3.2637,-3.2637,0,-3.1751,-3.1828,-3.1881,-3.1937,-3.2024,-3.2055,-3.214,-3.2177,-3.2231,-3.2294,-3.2307,-3.2366,-3.2406,-3.2471,-3.2497,-3.2586,-3.2605,-3.2622,-3.2628,-3.262,-3.2617,-3.2643,-3.2637,-3.2641,-3.264,-3.2639,-3.2639,0,-3.1832,-3.1871,-3.1971,-3.2042,-3.2062,-3.2122,-3.2183,-3.2238,-3.2271,-3.2351,-3.2371,-3.2423,-3.25,-3.2538,-3.2635,-3.2652,-3.2752,-3.2754,-3.2729,-3.2731,-3.278,-3.2774,-3.2936,-3.2958,-3.2841,-3.2842,-3.2843,0,-3.1898,-3.1958,-3.2035,-3.2078,-3.2116,-3.2185,-3.2231,-3.2265,-3.2313,-3.239,-3.2435,-3.2513,-3.2576,-3.2699,-3.2745,-3.2819,-3.2822,-3.2874,-3.2832,-3.2822,-3.282,-3.2815,-3.282,-3.288,-3.2881,-3.2882,-3.2883,0,-3.201,-3.2026,-3.2092,-3.2165,-3.222,-3.2279,-3.2337,-3.2372,-3.2415,-3.2468,-3.2547,-3.2596,-3.2694,-3.277,-3.2847,-3.2885,-3.2891,-3.2896,-3.2911,-3.2902,-3.2884,-3.2892,-3.2747,-3.2891,-3.289,-3.2889,-3.2889,-3.2889,-3.2084,-3.2137,-3.22,-3.2272,-3.232,-3.2374,-3.2428,-3.2468,-3.2534,-3.2616,-3.2633,-3.2715,-3.2778,-3.2882,-3.2923,-3.2988,-3.2976,-3.2999,-3.3005,-3.3009,-3.301,-3.2876,-3.3002,-3.3002,-3.3002,-3.3002,-3.3002,0,-3.2195,-3.2236,-3.2303,-3.2383,-3.2441,-3.2442,-3.2507,-3.2554,-3.2627,-3.2685,-3.2747,-3.2837,-3.2911,-3.2964,-3.3039,-3.3082,-3.3086,-3.31,-3.3096,-3.3104,-3.3017,-3.2995,-3.3095,-3.3095,-3.3095,-3.3095,-3.3095,-3.3095,-3.2259,-3.2348,-3.2372,-3.2484,-3.2525,-3.2605,-3.2642,-3.2692,-3.2738,-3.2838,-3.2899,-3.2933,-3.2989,-3.3069,-3.3137,-3.315,-3.3177,-3.319,-3.3204,-3.3121,-3.3111,-3.3101,-3.308,-3.3197,-3.3197,-3.3285,-3.3286,-3.3286]},{"header":{"parameterUnit":"m.s-1","parameterCategory":1,"la1":30.2991,"la2":30.254,"lo1":-89.0895,"lo2":-89.0444,"dy":0.0017,"dx":0.0017,"nx":28,"ny":28,"refTime":"2024-08-30T09:00:00:Z","depth":0,"parameterNumber":3,"parameterNumberName":"V-component_of_WINDS"},"data":[0,0,0,0,0,0,0,0,0,0,0,0,0,0,0,0,0,0,0,0,0,0,0,0,0,0,0,0,0,0,0,0,0,0,0,0,0,0,0,0,0,0,0,0,0,0,0,0,0,0,0,0,0,0,0,0,0,0,2.4342,2.4342,0,2.4367,2.4367,2.4367,2.4299,2.4297,2.4295,2.4293,2.4316,2.4318,2.4321,0,0,0,0,0,0,0,0,0,0,0,0,0,2.4234,2.4237,2.4342,2.4343,2.4343,2.4367,2.4367,2.4368,2.4299,2.4297,2.4294,2.4292,2.4315,2.4318,2.4321,0,0,0,0,0,0,0,0,0,0,0,0,0,2.4272,2.4237,2.4342,2.4312,2.4309,2.4367,2.4367,2.4368,2.43,2.4297,2.4293,2.429,2.4314,2.4318,2.4321,2.4409,0,0,2.4333,2.4335,0,0,0,0,0,0,0,0,2.427,2.4276,2.4316,2.4314,2.4311,2.4327,2.4337,2.4381,2.4301,2.4303,2.4293,2.4289,2.4322,2.4325,2.4336,2.441,2.4411,2.4334,2.4336,2.4338,2.4339,0,0,0,0,0,0,0,2.4268,2.4275,2.4352,2.4316,2.4314,2.4296,2.4298,2.4345,2.433,2.4303,2.4298,2.4302,2.432,2.4333,2.4336,2.4411,2.4333,2.4337,2.4339,2.4341,2.4558,2.4561,0,0,0,0,0,0,2.4269,2.4273,2.4351,2.4353,2.4283,2.4301,2.4303,2.4325,2.4329,2.4327,2.4305,2.4299,2.4328,2.4332,2.4337,2.4439,2.4338,2.4341,2.4343,2.4555,2.4559,2.4563,0,0,0,0,0,0,2.4267,2.4277,2.435,2.4312,2.432,2.4306,2.4331,2.4327,2.434,2.4331,2.4327,2.4321,2.4325,2.4331,2.4392,2.4439,2.4343,2.4346,2.4551,2.4556,2.4561,2.4645,0,0,0,0,0,0,2.4264,2.4276,2.431,2.4313,2.4322,2.4405,2.4334,2.433,2.4347,2.4339,2.4345,2.4343,2.4323,2.4386,2.4395,2.4442,2.4349,2.4546,2.4553,2.4559,2.4637,2.4652,2.4664,0,0,0,0,0,2.4261,2.4332,2.4312,2.4322,2.4363,2.4408,2.4413,2.439,2.4351,2.4384,2.4378,2.4342,2.4433,2.4393,2.4403,2.4452,2.4543,2.4551,2.4559,2.4631,2.4649,2.4664,0,0,0,0,0,0,2.4333,2.4332,2.4309,2.4384,2.4397,2.4396,2.4437,2.4409,2.4433,2.4424,2.4394,2.4396,2.4462,2.4463,2.4419,2.4537,2.4481,2.4491,2.4533,2.455,2.4563,2.4561,2.4353,0,0,0,0,0,2.4358,2.4395,2.4392,2.4458,2.4465,2.4451,2.4469,2.445,2.4462,2.4467,2.4465,2.4478,2.4509,2.453,2.4558,2.4638,2.4638,2.4677,2.469,2.4701,2.471,2.4752,2.4769,2.4588,2.4588,2.4588,0,0,2.441,2.4413,2.4438,2.4472,2.448,2.4518,2.4455,2.4498,2.4526,2.4473,2.453,2.453,2.4541,2.4612,2.4643,2.4615,2.476,2.4711,2.472,2.4722,2.4762,2.4779,2.4794,2.4593,2.4592,2.4591,0,0,2.4522,2.453,2.4585,2.4595,2.4608,2.4598,2.4611,2.4616,2.4614,2.4671,2.4632,2.4664,2.4719,2.4729,2.4741,2.486,2.4827,2.487,2.4939,2.4981,2.4995,2.5008,2.5049,2.5064,2.4879,2.4879,2.4879,0,2.4584,2.4641,2.4617,2.4663,2.4679,2.4634,2.469,2.47,2.4722,2.4734,2.4702,2.477,2.4775,2.4847,2.4876,2.4888,2.4902,2.4868,2.4995,2.5007,2.5019,2.5058,2.5074,2.4884,2.4883,2.4883,2.4882,0,2.4716,2.4756,2.4799,2.4822,2.4843,2.4894,2.4877,2.4902,2.4882,2.4875,2.4934,2.4939,2.4967,2.4983,2.4964,2.5053,2.5035,2.5,2.4943,2.5041,2.5078,2.5092,2.4891,2.4889,2.4888,2.4887,0,0,2.4872,2.4883,2.4899,2.4909,2.4921,2.4951,2.5,2.5029,2.505,2.5067,2.5107,2.5155,2.5123,2.5137,2.5119,2.5156,2.5249,2.5116,2.5116,2.514,2.5347,2.5372,2.539,2.5229,2.5231,2.5234,2.5346,0,2.4982,2.5067,2.5048,2.5131,2.5167,2.5126,2.5169,2.5181,2.5177,2.5207,2.5202,2.5236,2.5192,2.52,2.5235,2.523,2.529,2.5222,2.5264,2.5266,2.5261,2.5409,2.5435,2.554,2.536,2.5362,2.5364,0,2.5121,2.5145,2.5232,2.5239,2.5253,2.5292,2.5317,2.5347,2.536,2.5354,2.5371,2.5346,2.5394,2.5339,2.5405,2.5359,2.5376,2.5377,2.538,2.5381,2.5319,2.5413,2.5573,2.5589,2.5386,2.5384,2.5383,0,2.5226,2.5279,2.5338,2.5348,2.5358,2.5386,2.5391,2.5401,2.542,2.5442,2.5454,2.5481,2.5496,2.5518,2.5501,2.5462,2.5569,2.5513,2.5565,2.5566,2.5587,2.5586,2.5751,2.5601,2.5601,2.5601,2.5601,0,2.535,2.5404,2.5385,2.5421,2.5481,2.5459,2.5519,2.5519,2.5529,2.5564,2.5531,2.5564,2.5541,2.5573,2.556,2.5616,2.5623,2.562,2.5615,2.5622,2.5622,2.563,2.5622,2.5605,2.5604,2.5603,2.5603,0,2.5475,2.5464,2.5526,2.5531,2.5533,2.5577,2.5581,2.5615,2.5609,2.5654,2.5663,2.5654,2.569,2.5676,2.5713,2.5705,2.5777,2.5763,2.5772,2.5768,2.5821,2.5816,2.5996,2.6018,2.5856,2.5857,2.5859,0,2.5554,2.5595,2.5605,2.5626,2.5634,2.567,2.5689,2.5669,2.5691,2.571,2.5741,2.5774,2.5799,2.5859,2.5855,2.5884,2.587,2.5931,2.5874,2.5879,2.5869,2.5867,2.587,2.5942,2.5944,2.5946,2.5947,0,2.5694,2.5687,2.5717,2.5746,2.577,2.5791,2.5809,2.5829,2.581,2.5836,2.5873,2.5893,2.5932,2.5965,2.5991,2.5996,2.5969,2.5966,2.5979,2.5985,2.5988,2.5986,2.5802,2.5961,2.5959,2.5958,2.5958,2.5957,2.5798,2.5832,2.5845,2.5879,2.5891,2.591,2.5941,2.594,2.5971,2.6001,2.5988,2.6031,2.6044,2.6076,2.6085,2.6118,2.6094,2.6113,2.6118,2.6123,2.6129,2.5985,2.6123,2.6122,2.6122,2.6122,2.6121,0,2.5935,2.5942,2.5974,2.6001,2.6028,2.6002,2.6021,2.6045,2.6083,2.6098,2.6124,2.6166,2.6199,2.6199,2.6229,2.6255,2.6243,2.6263,2.626,2.6262,2.615,2.6134,2.6273,2.6273,2.6273,2.6273,2.6272,2.6272,2.601,2.6067,2.6063,2.6126,2.6132,2.6174,2.6187,2.6203,2.6215,2.6264,2.6291,2.6291,2.63,2.6331,2.636,2.6359,2.6371,2.6396,2.639,2.6285,2.627,2.6255,2.6241,2.6399,2.6399,2.65,2.6501,2.6501]}]]